McAlester, OK

12:02 PM CST on December 05, 2019 (GMT -0600)
McAlester Regional

Weather History for KMLC - September, 2019

Change the Weather History Date:

Monday, September 30, 2019

  Actual Average Record
Temperature  
Mean Temperature 78 °F -  
Max Temperature 86 °F 80 °F 95 °F (1998)
Min Temperature 73 °F 55 °F 34 °F (1984)
Cooling Degree Days 14    
Growing Degree Days 28 (Base 50)    
Moisture  
Dew Point 69 °F    
Average Humidity 71    
Maximum Humidity 84    
Minimum Humidity 61    
Precipitation  
Precipitation 0.00 in - - ()
Sea Level Pressure  
Sea Level Pressure 30.01 in    
Wind  
Wind Speed 7 mph (SSE)    
Max Wind Speed 15 mph    
Max Gust Speed 23 mph    
Visibility 10 miles    
Events      
Averages and records for this station are not official NWS values.
T = Trace of Precipitation, MM = Missing Value Source: NWS Daily Summary

Daily Weather History Graph

Daily Weather History Graph

Search for Another Location

Airport or City:

Astronomy

Sep. 30, 2019 Rise Set
Actual Time 7:16 AM CDT 7:08 PM CDT
Civil Twilight 6:51 AM CDT 7:33 PM CDT
Nautical Twilight 6:22 AM CDT 8:03 PM CDT
Astronomical Twilight 5:52 AM CDT 8:32 PM CDT
Moon 9:18 AM CDT (9/30) 8:50 PM CDT (9/30)
Length of Visible Light 12h 42m
Length of Day
11h 51m
Waxing Crescent, 6% of the Moon is Illuminated
Sep 30
Waxing Crescent
Oct 5
First Quarter
Oct 13
Full
Oct 21
Last Quarter
Oct 27
New

Hourly Weather History & Observations

Time (CDT) Temp. Heat Index Dew Point Humidity Pressure Visibility Wind Dir Wind Speed Gust Speed Precip Events Conditions
12:53 AM 77.0 °F - 68.0 °F 74% 30.00 in 10.0 mi SSE 4.6 mph - N/A   Mostly Cloudy
1:53 AM 78.1 °F - 68.0 °F 71% 30.00 in 10.0 mi Variable 5.8 mph - N/A   Clear
2:53 AM 75.9 °F - 66.9 °F 74% 30.01 in 10.0 mi Variable 5.8 mph - N/A   Clear
4:53 AM 75.0 °F - 68.0 °F 79% 30.00 in 10.0 mi Variable 5.8 mph - N/A   Partly Cloudy
5:53 AM 73.9 °F - 68.0 °F 82% 30.01 in 10.0 mi Variable 4.6 mph - N/A   Clear
6:53 AM 73.0 °F - 68.0 °F 84% 30.01 in 10.0 mi Variable 5.8 mph - N/A   Clear
7:53 AM 73.9 °F - 68.0 °F 82% 30.01 in 10.0 mi South 8.1 mph - N/A   Partly Cloudy
8:53 AM 75.0 °F - 69.1 °F 82% 30.03 in 10.0 mi Variable 6.9 mph - N/A   Clear
9:53 AM 78.1 °F - 69.1 °F 74% 30.04 in 10.0 mi South 9.2 mph 19.6 mph N/A   Clear
10:53 AM 80.1 °F 82.9 °F 69.1 °F 69% 30.04 in 10.0 mi SSW 12.7 mph 23.0 mph N/A   Partly Cloudy
11:09 AM 82.0 °F 85.9 °F 70.0 °F 67% 30.08 in 10.0 mi SSW 15.0 mph 19.6 mph N/A   Mostly Cloudy
11:23 AM 81.0 °F 84.1 °F 69.1 °F 67% 30.07 in 10.0 mi SSW 12.7 mph 18.4 mph N/A   Scattered Clouds
11:53 AM 82.9 °F 86.5 °F 69.1 °F 63% 30.04 in 10.0 mi South 9.2 mph - N/A   Clear
12:48 PM 82.4 °F 86.3 °F 69.8 °F 66% 30.07 in 10.0 mi South 9.2 mph 17.3 mph N/A   Mostly Cloudy
12:53 PM 82.9 °F 86.5 °F 69.1 °F 63% 30.04 in 10.0 mi South 10.4 mph 17.3 mph N/A   Mostly Cloudy
1:53 PM 84.0 °F 87.8 °F 69.1 °F 61% 30.01 in 10.0 mi South 12.7 mph 18.4 mph N/A   Scattered Clouds
2:53 PM 84.9 °F 89.4 °F 70.0 °F 61% 30.00 in 10.0 mi South 10.4 mph 17.3 mph N/A   Mostly Cloudy
3:53 PM 84.9 °F 89.4 °F 70.0 °F 61% 29.99 in 10.0 mi SSE 8.1 mph - N/A   Mostly Cloudy
4:53 PM 84.0 °F 88.4 °F 70.0 °F 63% 29.98 in 10.0 mi South 5.8 mph - N/A   Overcast
5:53 PM 82.9 °F 87.5 °F 71.1 °F 67% 29.96 in 10.0 mi SSE 4.6 mph - N/A   Overcast
6:53 PM 82.0 °F 86.3 °F 71.1 °F 69% 29.96 in 10.0 mi SE 4.6 mph - N/A   Overcast
7:53 PM 80.1 °F 83.6 °F 71.1 °F 74% 29.95 in 10.0 mi ESE 5.8 mph - N/A   Mostly Cloudy
8:53 PM 78.1 °F - 70.0 °F 76% 29.96 in 10.0 mi ESE 4.6 mph - N/A   Clear
9:53 PM 77.0 °F - 69.1 °F 76% 29.96 in 10.0 mi Calm Calm - N/A   Clear
10:53 PM 77.0 °F - 68.0 °F 74% 29.96 in 10.0 mi SE 4.6 mph - N/A   Mostly Cloudy
11:53 PM 77.0 °F - 66.9 °F 71% 29.96 in 10.0 mi SSE 5.8 mph - N/A   Clear